Flag for Western Sahara Weather past 2 weeks in El Aaiún, Western Sahara

Now
75 °F

Clear.


Feels Like: 78 °F
Forecast: N/A
Wind: 7 mph from Northeast

Location: Laayoune/Hassan Isl

Current Time: Oct 23, 2014 at 9:46:17 PM

Latest Report: Oct 23, 2014 at 9:00 PM


Visibility: 10 mi

Pressure: 29.98 "Hg

Humidity: 57%

Dew point: 59 °F

Location of El AaiúnLocation

Historic Weather in El Aaiún — Graph

°F

El Aaiún temperature yesterday

Maximum temperature yesterday: 99 °F (at 2:00 PM)
Minimum temperature yesterday: 73 °F (at 1:00 AM)
Average temperature yesterday: 82 °F

Past Weeks' High & Low Weather Summary

 TemperatureHumidityPressure
High99 °F (Oct 22, 2:00 PM)100% (Oct 11, 3:45 AM)30.12 "Hg (Oct 11, 3:45 AM)
Low59 °F (Oct 14, 8:00 AM)10% (Oct 22, 2:00 PM)29.83 "Hg (Oct 19, 2:00 PM)
Average73 °F72%30.01 "Hg
* Reported Oct 8 9:00 PM — Oct 23 9:00 PM, El Aaiún, Weather by CustomWeather, © 2014

Note: Actual official high and low records may vary slightly from our data, if they occured in-between our weather recording intervals... More about our weather records

Advertising

El Aaiún weather history for previous 24 hours

 ConditionsComfort  
Time TempWeatherWind HumidityBarometerVisibility
9:00 PM
Oct 23
75 °FClear.7 mph57%29.98 "Hg10 mi
8:00 PM77 °FSunny.7 mph54%29.95 "Hg10 mi
7:00 PM79 °FWarm.7 mph54%29.98 "Hg5 mi
6:00 PM84 °FWarm.13 mph43%29.98 "Hg6 mi
5:00 PM88 °FPleasantly warm.12 mph38%29.98 "Hg6 mi
4:00 PM88 °FWarm.13 mph46%29.98 "HgN/A
3:00 PM90 °FHot.10 mph43%29.98 "HgN/A
2:28 PM91 °FHot.9 mph26%30.01 "HgN/A
2:00 PM88 °FPleasantly warm.9 mph35%30.01 "HgN/A
1:00 PM82 °FSunny.9 mph51%30.04 "Hg10 mi
12:00 PM77 °FSunny.12 mph65%30.07 "Hg10 mi
11:30 AM77 °FWarm.9 mph65%30.07 "Hg4 mi
11:00 AM73 °FScattered clouds.8 mph74%30.07 "Hg4 mi
10:00 AM68 °FScattered clouds.12 mph88%30.04 "Hg4 mi
9:30 AM66 °FFog.9 mph94%30.07 "Hg3 mi
9:16 AM66 °FFog.10 mph94%30.07 "Hg2 mi
9:00 AM66 °FFog.12 mph94%30.04 "Hg1 mi
8:34 AM64 °FFog.12 mph100%30.04 "Hg1 mi
8:01 AM66 °FFog.13 mph94%30.04 "Hg0 mi
7:00 AM66 °FFog.10 mph94%30.04 "Hg3 mi
6:28 AM66 °FFog.8 mph94%30.04 "Hg3 mi
6:18 AM66 °FFog.9 mph94%30.04 "Hg3 mi
6:00 AM66 °FPassing clouds.9 mph94%30.04 "Hg3 mi
5:34 AM66 °FPassing clouds.8 mph100%30.04 "Hg3 mi
5:00 AM66 °FFog.14 mph94%30.04 "Hg3 mi
4:00 AM68 °FFog.16 mph94%30.04 "Hg2 mi
3:00 AM68 °FFog.15 mph94%30.04 "Hg2 mi
2:31 AM68 °FFog.15 mph94%30.07 "Hg3 mi
2:18 AM70 °FPassing clouds.14 mph88%30.07 "Hg3 mi
2:00 AM70 °FClear.12 mph94%30.04 "Hg3 mi
1:00 AM70 °FClear.12 mph94%30.09 "Hg4 mi
12:00 AM72 °FClear.14 mph88%30.07 "Hg5 mi
11:00 PM
Oct 22
75 °FClear.13 mph74%30.07 "Hg5 mi
10:00 PM77 °FWarm.15 mph69%30.07 "Hg5 mi
9:00 PM79 °FClear.16 mph65%30.04 "Hg10 mi
Weather by CustomWeather, © 2014

See weather overviewHow to use our weather pages